Location: Pine Mountain Observatory
(43.7910°N, 120.9377°W)
Time: 19:54:25
(UTC-07:00)

deb Explorer IX - All Passes

Search period start: 25 May 2019 00:00
Search period end: 04 June 2019 00:00
Orbit: 538 x 1114 km, 38.8° (Epoch: 25 May)

Date Brightness Start Highest point End Pass type
(mag) Time Alt. Az. Time Alt. Az. Time Alt. Az.
25 May - 01:25:01 10° S 01:27:05 14° SSE 01:29:09 10° ESE visible
25 May - 03:09:33 10° SW 03:13:13 34° SSE 03:16:57 10° ESE visible
25 May - 04:55:46 10° WSW 04:59:36 41° S 05:03:45 10° ESE visible
25 May - 06:42:31 10° WSW 06:45:59 24° SSW 06:49:47 10° SSE daylight
26 May - 01:03:12 10° S 01:05:28 14° SSE 01:07:39 10° ESE night (unlit)
26 May - 02:47:55 10° SW 02:51:37 34° SSE 02:55:19 10° ESE visible
26 May - 04:34:11 10° WSW 04:37:59 40° S 04:42:02 10° ESE visible
26 May - 06:21:01 10° WSW 06:24:20 22° SSW 06:27:56 10° SSE daylight
27 May - 00:41:22 10° S 00:43:49 15° SSE 00:46:11 10° ESE night (unlit)
27 May - 02:26:16 10° SW 02:30:00 34° S 02:33:42 10° ESE visible
27 May - 04:12:36 10° WSW 04:16:23 39° S 04:20:19 10° ESE visible
27 May - 05:59:30 10° WSW 06:02:41 21° SSW 06:06:06 10° SSE daylight
28 May - 00:19:31 10° SSW 00:22:11 16° SSE 00:24:42 10° ESE night (unlit)
28 May - 02:04:35 10° SW 02:08:24 35° S 02:12:05 10° ESE visible
28 May - 03:51:00 10° WSW 03:54:47 39° S 03:58:38 10° ESE visible
28 May - 05:38:00 10° WSW 05:41:04 20° SSW 05:44:18 10° SSE daylight
28 May - 23:57:40 10° SSW 00:00:32 17° SSE 00:03:14 10° ESE night (unlit)
29 May - 01:42:53 10° WSW 01:46:47 36° S 01:50:30 10° ESE visible
29 May - 03:29:23 10° WSW 03:33:10 38° S 03:36:59 10° ESE visible
29 May - 05:16:28 10° WSW 05:19:26 20° SSW 05:22:31 10° SSE daylight
29 May - 23:35:46 10° SSW 23:38:52 18° SSE 23:41:46 10° ESE night (unlit)
30 May - 01:21:09 10° WSW 01:25:10 37° S 01:28:55 10° ESE visible
30 May - 03:07:44 10° WSW 03:11:34 38° S 03:15:20 10° ESE visible
30 May - 04:54:55 10° WSW 04:57:48 19° SSW 05:00:45 10° SSE daylight
30 May - 23:13:52 10° SSW 23:17:13 19° SSE 23:20:18 10° ESE night (unlit)
31 May - 00:59:25 10° WSW 01:03:33 38° S 01:07:21 10° ESE night (unlit)
31 May - 02:46:04 10° WSW 02:49:57 38° S 02:53:43 10° ESE visible
31 May - 04:33:21 10° WSW 04:36:10 18° SSW 04:39:00 10° SSE visible
31 May - 22:51:57 10° SSW 22:55:33 20° SSE 22:58:50 10° ESE visible
01 Jun - 00:37:38 10° WSW 00:41:55 39° S 00:45:48 10° ESE night (unlit)
01 Jun - 02:24:23 10° WSW 02:28:21 38° S 02:32:06 10° ESE visible
01 Jun - 04:11:46 10° WSW 04:14:31 18° SSW 04:17:17 10° SSE visible
01 Jun - 22:30:01 10° SSW 22:33:52 21° SSE 22:37:21 10° ESE visible
02 Jun - 00:15:50 10° WSW 00:20:17 40° S 00:24:15 10° ESE visible
02 Jun - 02:02:40 10° WSW 02:06:43 38° S 02:10:30 10° ESE visible
02 Jun - 03:50:09 10° WSW 03:52:53 17° SSW 03:55:35 10° SSE visible
02 Jun - 22:08:03 10° SSW 22:12:10 23° SSE 22:15:52 10° ESE visible
02 Jun - 23:54:01 10° WSW 23:58:39 41° S 00:02:42 10° ESE visible
03 Jun - 01:40:56 10° WSW 01:45:06 39° S 01:48:55 10° ESE night (unlit)
03 Jun - 03:28:31 10° WSW 03:31:14 17° SSW 03:33:55 10° SSE visible
03 Jun - 21:46:06 10° SSW 21:50:29 24° SSE 21:54:22 10° ESE visible
03 Jun - 23:32:10 10° WSW 23:36:59 42° S 23:41:10 10° ESE visible
